Flag for India Weather past 2 weeks in Ahmedabad, Gujarat, India

Now
91 °F

Clear.


Feels Like: 105 °F
Forecast: 80 / 94 °F
Wind: 5 mph from Southwest

Location: Ahmadabad Airport

Current Time: Aug 21, 2014 at 8:14:14 PM

Latest Report: Aug 21, 2014 at 7:40 PM


Visibility: 2 mi

Pressure: 29.62 "Hg

Humidity: 63%

Dew point: 77 °F

Location of AhmedabadLocation

Historic Weather in Ahmedabad — Graph

°F

Ahmedabad temperature yesterday

Maximum temperature yesterday: 99 °F (at 2:40 PM)
Minimum temperature yesterday: 82 °F (at 6:10 AM)
Average temperature yesterday: 90 °F

Past Weeks' High & Low Weather Summary

 TemperatureHumidityPressure
High99 °F (Aug 20, 2:40 PM)100% (Aug 6, 6:40 PM)29.86 "Hg (Aug 6, 6:40 PM)
Low77 °F (Aug 15, 7:40 AM)50% (Aug 20, 3:40 PM)29.50 "Hg (Aug 7, 3:40 PM)
Average86 °F76%29.68 "Hg
* Reported Aug 6 6:40 PM — Aug 21 6:40 PM, Ahmedabad, Weather by CustomWeather, © 2014

Note: Actual official high and low records may vary slightly from our data, if they occured in-between our weather recording intervals... More about our weather records

Advertising

Ahmedabad weather history for previous 24 hours

 ConditionsComfort  
Time TempWeatherWind HumidityBarometerVisibility
6:40 PM
Aug 21
95 °FPassing clouds.5 mph56%29.62 "Hg4 mi
5:40 PM97 °FPassing clouds.5 mph53%29.59 "Hg4 mi
5:10 PM97 °FPassing clouds.6 mph50%29.59 "Hg4 mi
4:40 PM97 °FPassing clouds.6 mph50%29.59 "Hg4 mi
4:10 PM97 °FPassing clouds.6 mph56%29.62 "Hg4 mi
3:40 PM97 °FPassing clouds.6 mph53%29.62 "Hg4 mi
3:10 PM97 °FPassing clouds.6 mph60%29.65 "Hg4 mi
2:40 PM97 °FPassing clouds.6 mph53%29.65 "Hg4 mi
2:10 PM97 °FPassing clouds.5 mph53%29.65 "Hg4 mi
1:40 PM95 °FPassing clouds.5 mph60%29.68 "Hg4 mi
1:10 PM95 °FPassing clouds.5 mph60%29.68 "Hg3 mi
12:40 PM93 °FPassing clouds.6 mph63%29.71 "Hg3 mi
12:10 PM93 °FPassing clouds.5 mph59%29.74 "Hg3 mi
11:40 AM93 °FPassing clouds.5 mph59%29.74 "Hg3 mi
11:10 AM91 °FPassing clouds.7 mph59%29.74 "Hg3 mi
10:40 AM90 °FPassing clouds.6 mph63%29.74 "Hg3 mi
9:40 AM88 °FHaze.7 mph66%29.74 "Hg2 mi
9:10 AM86 °FHaze.8 mph75%29.74 "Hg2 mi
8:40 AM86 °FHaze.5 mph75%29.74 "Hg2 mi
8:10 AM84 °FHaze.6 mph79%29.71 "Hg2 mi
7:40 AM82 °FHaze.5 mph84%29.71 "Hg2 mi
6:40 AM82 °FHaze.6 mph79%29.68 "Hg2 mi
6:10 AM82 °FHaze.7 mph79%29.68 "Hg2 mi
5:40 AM82 °FHaze.8 mph79%29.68 "Hg2 mi
4:40 AM84 °FHaze.7 mph70%29.65 "Hg2 mi
4:10 AM84 °FHaze.7 mph70%29.65 "Hg2 mi
3:40 AM84 °FHaze.6 mph70%29.65 "Hg2 mi
2:40 AM86 °FHaze.5 mph66%29.65 "Hg2 mi
2:10 AM86 °FHaze.5 mph66%29.68 "Hg2 mi
1:40 AM88 °FHaze.6 mph62%29.68 "Hg2 mi
1:10 AM86 °FHaze.7 mph75%29.68 "Hg2 mi
12:40 AM86 °FHaze.5 mph75%29.68 "Hg2 mi
12:10 AM86 °FHaze.5 mph75%29.68 "Hg2 mi
11:40 PM
Aug 20
86 °FHaze.5 mph75%29.68 "Hg2 mi
11:10 PM88 °FHaze.6 mph70%29.71 "Hg2 mi
10:40 PM88 °FHaze.6 mph66%29.71 "Hg2 mi
10:10 PM90 °FHaze.6 mph63%29.71 "Hg2 mi
9:40 PM90 °FHaze.6 mph67%29.71 "Hg2 mi
9:10 PM91 °FHaze.3 mph63%29.68 "Hg2 mi
8:40 PM93 °FClear.2 mph59%29.68 "Hg2 mi
8:10 PM93 °FClear.2 mph56%29.68 "Hg2 mi
Weather by CustomWeather, © 2014

See weather overviewHow to use our weather pages